User: anonymous   Login
Location: Remedello Sotto
(45.2500°N, 10.3667°E)
Time: 03:51:34
(UTC+00:00)
Language:

MOS 1-B - Orbit

View from above orbital plane
View from above orbital plane
View from above satellite
View from above satellite

Ground track
Ground track

The orbit data is extracted from the following two-line orbital elements,

1 20478U 90013A   23150.10490772  .00000205  00000-0  18431-3 0  9992
2 20478  99.3726 184.8945 0005112 345.6732  14.4284 13.95666157616608
Epoch (UTC): 30 May 2023 02:31:04
Eccentricity: 0.0005112
inclination: 99.3726°
perigee height: 905 km
apogee height: 912 km
right ascension of ascending node: 184.8945°
argument of perigee: 345.6732°
revolutions per day: 13.95666157
mean anomaly at epoch: 14.4284°
orbit number at epoch: 61660

The dashed part of the orbit path shows where the satellite is in the earth's shadow,  

DLR